Theta_e
309 309 309 309 309 310 309 310 311 310 311 313 315 313 310 307 307 307 306 306 306 306 305 305 305 306 305 305 305 305 305 305 305 305 304 304 304 304 303 303 303 303
310 309 309 309 309 310 310 310 310 310 311 312 314 314 310 308 307 307 307 306 306 306 306 305 305 305 305 305 305 304 304 304 304 304 304 304 303 303 303 303 303 302
311 310 309 309 309 309 309 310 311 311 311 311 312 312 311 309 308 307 307 307 307 307 306 306 305 305 305 305 304 304 304 304 304 304 304 304 303 303 303 303 302 302
311 311 310 310 310 309 309 310 310 311 311 311 311 311 311 311 309 308 308 307 307 307 307 306 306 305 305 305 305 304 304 304 304 304 304 304 304 303 303 303 302 301
312 311 312 311 310 310 310 310 310 311 311 312 311 311 311 312 311 310 309 308 308 307 307 307 306 306 306 305 305 304 304 304 304 304 304 304 304 304 303 303 303 302
312 312 312 312 311 311 311 310 310 311 311 312 312 312 311 311 312 311 310 309 308 308 307 307 307 306 306 306 305 305 304 304 304 304 303 304 304 304 304 303 303 302
311 312 313 313 312 312 312 311 311 311 311 312 312 312 312 312 312 312 311 311 309 309 308 307 307 307 306 306 305 305 305 304 303 303 303 303 303 304 304 304 303 302
310 310 311 312 313 313 313 313 313 312 312 312 313 313 313 312 312 312 312 312 311 310 309 308 308 307 307 306 306 306 305 305 304 303 303 303 303 303 303 303 303 303
314 312 311 310 311 313 314 315 316 315 314 313 314 314 315 314 313 312 312 312 312 311 310 309 309 308 307 306 306 306 305 305 305 304 303 302 302 303 303 303 303 303
318 318 316 313 311 311 311 313 315 317 316 316 315 315 315 315 315 314 313 313 312 312 311 311 310 309 308 308 307 306 305 305 305 305 303 303 302 303 303 303 303 303
320 320 320 319 317 315 313 312 312 313 315 316 316 316 316 316 316 315 314 313 313 313 312 312 311 310 310 308 307 306 306 305 305 304 304 303 302 302 303 303 303 302
321 321 321 321 321 320 319 318 316 314 313 314 315 316 317 317 316 316 315 313 313 313 313 312 312 311 310 309 308 307 306 305 305 304 304 303 302 302 302 302 302 301
317 320 321 322 323 323 322 322 321 320 318 317 316 316 316 317 317 317 316 315 313 313 313 313 312 311 311 310 309 308 307 306 305 304 304 303 303 302 302 302 301 300
311 312 314 318 320 322 323 323 322 321 321 320 319 319 318 318 318 318 317 316 314 313 313 313 312 311 311 310 309 308 307 306 305 305 304 303 302 302 301 300 300 298
306 307 308 310 313 316 319 322 322 322 321 320 320 320 320 320 319 319 318 317 316 314 313 312 312 311 311 310 309 308 307 306 306 305 304 303 302 301 300 299 298 297
305 305 305 306 306 308 311 316 319 321 321 320 320 320 320 320 320 319 318 316 316 315 313 312 312 312 311 311 310 308 307 306 305 305 304 303 302 300 299 298 298 296
304 304 304 305 305 306 306 307 311 317 320 320 320 319 319 320 320 319 318 316 315 314 314 313 312 312 312 311 310 308 306 306 305 304 303 301 300 299 298 297 297 296
303 303 304 304 305 305 305 304 305 312 317 319 319 319 319 320 319 318 316 315 314 313 313 313 313 312 312 311 309 307 306 305 304 303 301 299 298 297 296 296 296 295
302 302 303 303 304 304 304 305 306 309 314 317 318 319 318 319 319 318 316 315 314 313 312 313 312 312 311 310 308 307 306 305 303 301 299 297 296 296 295 295 294 293
301 302 302 302 303 303 303 305 307 310 312 315 317 317 317 318 318 317 316 315 314 313 312 312 312 311 310 309 307 306 305 304 301 299 297 295 294 294 294 294 293 292
300 301 301 301 301 302 302 303 306 307 309 313 315 314 316 317 317 316 316 315 314 313 312 312 311 310 309 307 306 305 304 302 299 296 295 295 294 294 293 293 292 292
300 300 300 301 301 302 302 301 303 303 306 312 314 312 314 317 317 317 316 314 313 312 312 311 310 309 307 306 305 303 301 299 297 296 295 295 294 294 293 293 292 292
299 299 300 300 300 302 303 303 302 301 304 310 312 312 314 316 316 316 315 314 313 312 311 310 308 307 305 304 303 301 298 297 296 296 296 296 295 295 294 294 293 293
299 298 299 299 300 302 303 303 302 302 306 311 310 311 314 315 314 314 314 313 312 311 309 308 306 305 304 302 300 298 296 296 296 296 297 297 296 296 296 295 294 294
299 299 299 299 299 301 302 302 302 302 308 311 310 310 313 314 313 313 312 311 310 309 307 305 304 303 301 299 297 296 296 296 296 296 296 296 296 296 296 296 295 295
299 300 300 299 299 300 301 302 302 305 310 311 310 311 313 314 313 312 311 310 308 306 305 303 301 299 298 297 296 296 296 296 295 295 295 296 296 296 296 295 295 295
Wind_Speed
22 20 17 15 13 12 11 11 10 9 8 8 8 8 8 7 6 5 5 4 3 2 2 2 2 2 2 2 2 2 3 4 4 5 5 6 6 6 6 6 6 6
22 21 19 18 16 15 13 12 12 11 10 9 9 10 10 9 7 7 6 6 5 5 4 3 3 3 2 2 1 1 1 3 4 5 6 6 7 7 7 7 6 6
21 20 20 19 19 18 16 14 13 13 13 12 11 11 11 9 9 9 9 8 7 7 6 6 5 5 4 4 3 2 2 2 3 4 6 6 7 8 8 8 7 7
21 20 20 20 20 19 18 17 16 15 15 15 14 14 13 11 10 10 10 10 10 9 9 8 7 7 6 6 6 5 5 4 4 4 5 6 7 8 9 9 9 8
23 22 21 21 21 21 20 20 19 18 17 17 16 16 16 14 13 12 12 12 12 12 11 11 10 9 8 8 8 8 8 7 6 5 5 6 7 8 9 10 11 11
27 24 23 23 23 23 22 21 21 20 20 19 18 19 19 17 16 15 14 14 14 13 13 13 12 11 10 10 10 10 10 10 9 8 8 7 8 9 10 11 12 13
30 27 26 25 25 24 24 23 23 23 22 21 20 20 20 20 19 18 17 16 15 15 15 15 14 13 12 11 11 11 11 12 11 10 10 10 10 11 12 12 13 14
32 32 30 28 27 26 25 25 25 25 25 24 23 22 22 22 21 20 19 19 18 17 17 17 16 16 14 13 13 13 13 13 12 12 12 12 12 12 13 14 14 15
28 31 33 33 32 30 29 28 27 27 27 26 25 24 23 23 23 23 22 21 21 20 19 19 19 18 17 16 15 15 15 14 13 12 12 13 13 13 13 14 15 15
20 23 27 32 34 35 35 33 31 28 28 28 27 27 26 25 24 24 24 24 23 23 22 22 21 21 20 18 18 17 17 16 14 13 13 14 14 14 14 14 15 16
17 19 21 25 30 33 35 36 36 35 33 30 29 29 29 28 27 27 27 27 26 26 25 25 24 23 22 21 20 20 18 17 16 15 15 15 15 16 16 16 16 17
16 19 19 20 22 24 26 28 32 35 37 36 34 32 31 31 31 31 30 29 28 28 28 27 27 26 24 23 23 22 20 18 17 17 17 17 17 17 17 17 17 17
12 16 16 16 17 18 18 19 22 26 29 33 35 34 33 34 33 32 32 31 29 30 30 29 28 27 25 25 25 23 21 20 19 18 18 19 18 17 17 18 18 18
11 13 13 13 14 14 15 16 18 20 21 23 27 30 31 33 32 31 32 33 32 32 31 31 29 27 26 26 25 23 22 21 20 20 20 20 19 18 18 18 18 19
13 13 13 13 13 12 13 14 15 17 18 19 22 24 25 26 26 27 31 34 35 35 35 34 32 30 28 28 26 24 23 22 21 21 21 21 20 19 19 19 19 20
14 15 15 16 15 15 14 14 14 16 17 17 18 20 21 22 22 25 30 34 37 38 37 36 34 33 32 30 27 24 23 22 22 22 22 21 20 20 20 20 20 21
15 16 17 17 18 18 17 17 16 15 16 17 17 17 20 22 22 24 27 31 36 39 38 37 38 37 33 30 27 24 22 22 22 22 22 21 20 20 19 20 21 22
16 16 17 17 18 20 20 20 20 16 14 15 15 16 19 21 22 23 24 29 35 39 39 39 39 36 32 30 27 24 23 22 21 21 21 20 19 19 19 20 22 23
17 17 17 18 18 20 21 22 21 18 15 14 14 15 16 19 20 21 24 28 34 37 39 39 37 34 31 29 26 24 23 22 21 21 19 18 19 19 20 21 22 22
19 18 19 19 19 20 21 22 21 19 16 13 13 14 16 17 17 18 22 28 32 36 39 39 36 33 30 28 25 23 23 21 20 20 18 17 18 19 20 21 22 22
20 20 20 21 21 21 22 23 22 22 19 14 13 16 17 17 16 17 22 28 32 36 39 38 34 30 27 25 23 22 21 19 19 18 17 17 19 20 22 23 23 24
22 22 22 22 21 21 23 24 23 25 23 15 13 17 18 19 19 20 23 28 32 37 39 36 31 27 24 22 20 19 18 17 16 16 17 17 19 21 22 24 25 26
24 24 23 23 23 21 22 23 24 26 24 17 15 18 18 18 19 20 22 28 33 37 37 32 26 23 21 19 18 16 16 14 13 13 13 15 17 19 20 22 25 27
26 25 25 25 24 23 22 23 25 25 21 16 16 18 17 17 18 20 23 28 33 35 32 27 22 19 17 16 14 14 13 12 10 10 11 13 15 16 17 20 23 26
27 27 27 26 26 25 23 23 25 24 18 14 17 19 18 17 18 21 26 30 32 30 25 21 18 16 14 12 11 11 12 12 11 10 11 13 15 15 16 19 22 24
29 28 28 27 27 26 24 24 25 21 15 15 17 18 17 17 19 23 28 30 29 25 21 17 14 11 10 9 9 10 11 13 13 13 14 15 15 16 18 21 22 22
Wind_Direction
201 205 208 210 215 219 220 222 231 238 230 211 206 211 221 231 233 228 230 233 237 239 235 230 219 196 169 136 109 80 54 45 42 38 38 37 33 29 23 20 16 7
204 206 210 212 216 222 222 223 231 237 238 230 216 213 224 233 232 232 238 241 246 252 254 256 251 240 228 206 176 118 35 25 30 28 27 29 29 28 27 25 23 19
207 209 212 215 219 223 225 225 231 236 239 237 230 227 234 238 232 231 236 239 247 254 257 259 258 257 257 252 252 255 283 337 358 7 12 15 14 14 15 15 15 18
214 215 217 219 222 227 228 229 232 235 238 240 239 238 241 242 236 233 234 235 241 247 252 256 257 261 265 265 268 269 274 291 312 335 350 357 359 359 0 0 0 3
221 221 223 224 226 229 231 233 235 237 239 241 242 242 244 245 242 240 239 238 240 243 247 251 254 257 263 267 270 273 276 279 288 304 318 329 338 342 345 348 348 350
226 225 227 229 230 232 234 236 238 240 242 243 244 245 247 247 247 246 246 244 245 247 247 249 250 252 256 261 267 271 275 278 281 290 298 308 318 324 332 338 340 341
234 232 232 234 235 236 238 240 241 243 245 245 245 245 247 249 248 249 250 249 249 251 252 252 253 252 252 254 260 264 269 275 279 285 291 300 308 315 322 328 334 336
241 240 239 240 241 241 241 243 244 244 245 246 246 245 247 249 250 250 251 251 251 252 253 254 255 255 255 254 257 261 265 269 274 279 283 288 297 307 315 321 327 330
248 248 245 244 244 245 246 248 248 248 247 246 246 246 246 248 249 250 251 250 251 251 252 253 254 256 257 257 258 263 265 267 270 273 276 279 286 295 304 311 318 323
248 255 255 249 246 246 247 250 251 252 252 249 248 248 248 247 247 249 250 249 248 249 249 251 254 257 259 259 260 262 265 270 274 275 277 278 281 286 292 299 307 314
242 250 255 253 250 249 249 251 252 254 255 254 252 251 250 249 247 247 247 246 247 247 247 251 254 257 259 259 258 261 265 271 277 280 283 285 286 287 290 295 301 308
251 251 254 254 254 254 253 253 254 255 257 257 255 254 253 250 247 245 244 244 245 246 246 249 252 254 255 255 255 259 264 270 276 281 285 288 289 291 292 295 300 306
258 255 257 257 256 255 256 255 254 256 257 257 256 255 254 252 250 248 246 244 243 244 245 246 248 248 248 249 252 257 262 268 274 280 284 286 288 291 292 295 300 304
268 262 261 262 260 257 257 255 253 252 251 255 258 256 254 254 253 252 249 245 240 240 242 243 243 241 240 244 249 254 259 264 270 275 280 283 287 289 291 295 300 304
282 278 276 278 276 270 264 259 255 251 248 250 255 256 255 254 252 249 246 243 240 238 238 239 238 237 238 242 247 251 255 261 267 272 276 278 282 285 289 294 299 302
292 289 288 288 284 281 277 271 263 256 252 248 245 246 249 248 244 243 241 241 240 238 236 236 236 237 240 244 247 250 255 262 267 270 272 274 277 281 286 291 296 300
293 293 293 292 289 286 283 281 276 263 253 251 244 241 246 246 244 243 241 239 240 238 236 235 236 239 242 244 245 247 253 260 265 267 270 272 275 278 284 290 295 298
292 290 290 290 289 288 285 286 284 271 254 251 247 242 247 250 249 248 244 237 235 234 234 235 238 240 240 239 240 244 250 257 262 266 270 273 277 281 286 291 294 298
294 292 289 286 285 285 285 285 284 275 257 249 246 242 244 247 250 251 247 240 236 234 234 236 237 236 234 235 238 244 250 255 261 266 269 274 279 284 289 293 296 300
297 294 290 287 283 282 282 282 281 275 261 249 248 246 240 240 245 246 245 244 239 234 232 234 233 231 230 234 239 245 251 255 258 263 269 275 282 288 293 296 299 302
298 295 291 289 285 282 280 279 279 276 268 256 252 254 246 239 242 246 247 246 238 231 230 232 230 227 229 234 238 244 250 253 257 266 276 283 288 293 297 299 301 303
297 295 292 290 286 282 279 277 276 276 273 261 258 264 253 239 240 248 248 243 234 229 230 229 226 224 226 231 236 242 249 255 265 278 286 290 295 299 301 302 303 304
295 294 291 289 286 281 278 276 275 275 271 259 258 266 259 245 243 245 242 238 233 229 225 221 217 218 223 228 234 242 252 262 274 283 285 288 294 298 299 301 302 305
294 292 290 288 285 281 276 274 274 273 265 255 256 260 254 247 245 242 239 235 230 224 218 213 212 214 219 228 236 247 258 266 275 281 280 283 289 292 293 296 299 304
294 291 287 284 282 280 275 272 272 269 258 248 254 254 246 242 241 239 234 225 217 211 206 203 205 209 217 231 243 255 265 269 276 282 282 283 287 288 289 293 298 302
293 291 287 281 276 274 272 268 267 264 250 243 249 249 243 241 241 238 228 214 202 195 191 190 196 207 221 236 248 256 264 272 279 284 284 285 288 290 292 296 298 298